Temperature
23 23 23 23 22 22 21 21 21 20 20 20 19 19 19 19 18 18 18 18 18 18 18 18 18 18 18 18 18 18 18 18 18 17 18 18 18 18 18 17 17 17 17
23 23 23 23 22 22 21 21 21 20 20 20 19 19 19 18 18 18 18 18 18 18 18 18 18 18 18 18 18 18 18 18 18 17 17 17 18 18 17 17 17 17 17
23 23 23 23 22 22 22 21 21 20 20 20 19 19 18 18 18 18 18 18 18 18 18 18 18 18 18 18 18 18 18 18 18 17 17 17 18 18 18 17 17 17 17
23 23 23 22 22 22 21 21 21 20 20 20 19 19 19 19 18 18 18 18 18 18 18 18 18 18 18 18 18 18 18 18 18 17 17 17 17 17 17 17 17 17 17
24 23 23 23 22 22 21 21 21 20 20 20 19 19 19 19 18 18 18 18 18 18 18 18 18 18 18 18 18 18 18 18 18 18 18 17 17 17 17 17 17 17 17
23 23 23 22 22 22 21 21 21 20 20 20 19 19 19 19 18 18 18 18 18 18 18 18 18 18 18 18 18 18 18 18 18 18 18 17 17 17 17 17 17 17 17
23 23 23 22 22 22 21 21 21 20 20 20 19 19 19 19 18 18 18 18 18 18 18 18 18 18 18 18 18 18 18 17 17 18 17 17 17 17 17 17 17 16 16
24 23 23 23 22 22 22 21 21 20 20 20 19 19 19 19 18 18 18 18 18 18 18 18 18 18 17 17 18 17 17 17 17 17 17 17 17 17 17 17 17 16 16
24 24 23 23 22 22 22 21 21 20 20 20 19 19 19 18 18 18 18 18 18 18 17 17 17 17 17 17 17 17 17 17 17 17 17 17 17 17 17 17 16 16 15
24 24 23 23 23 22 22 21 21 20 20 20 19 19 19 18 18 18 18 18 17 17 17 17 17 17 17 17 17 17 17 17 17 17 17 17 17 17 17 16 16 16 16
24 24 24 23 23 22 22 21 21 20 20 20 19 19 19 19 18 18 18 18 17 17 17 17 17 17 17 17 17 17 17 17 17 17 16 16 16 16 16 16 16 16 16
25 24 24 23 23 22 21 21 21 21 20 20 19 19 19 19 18 18 18 17 17 17 17 17 17 17 17 17 17 17 17 16 16 16 16 16 16 16 16 16 16 16 15
25 24 23 23 23 22 21 21 21 20 20 20 19 19 19 18 18 18 18 17 17 17 17 17 17 17 17 16 16 16 16 16 16 16 16 16 16 16 16 15 15 15 15
25 24 23 23 23 22 22 21 21 20 20 20 19 19 19 18 18 18 17 17 17 17 17 17 17 17 16 16 16 16 16 16 16 16 15 15 15 15 15 15 15 15 15
24 24 24 23 23 22 21 21 21 20 20 20 19 19 19 18 18 17 17 17 17 17 17 16 16 16 16 16 16 16 16 15 15 15 15 15 15 15 15 15 14 14 14
24 24 24 23 23 22 22 21 21 20 20 19 19 19 18 18 17 17 17 17 17 17 16 16 16 16 16 15 15 15 15 15 15 15 15 15 14 14 14 14 14 14 14
24 24 24 23 23 22 22 21 21 20 19 19 19 18 18 18 17 17 17 17 17 16 16 16 16 16 16 15 15 15 15 15 15 15 14 14 14 14 14 14 14 13 13
25 25 24 23 23 22 22 21 20 20 19 19 19 18 18 17 17 17 17 17 16 16 16 16 16 15 15 15 15 15 15 14 14 14 14 14 14 13 13 13 13 13 13
26 25 24 24 23 22 21 21 20 19 19 19 19 18 18 17 17 17 17 16 16 16 16 15 15 15 15 15 14 14 14 14 14 14 13 13 13 13 13 13 12 12 12
25 25 24 23 23 22 21 21 20 19 19 19 18 18 18 17 17 17 16 16 16 15 15 15 15 14 14 14 14 14 14 14 13 13 13 13 12 12 12 12 12 12 12
24 24 23 23 22 22 21 20 20 19 19 19 18 18 17 17 17 16 16 16 15 15 15 14 14 14 14 14 14 13 13 13 13 13 12 12 12 12 12 11 11 11 11
23 23 22 22 22 21 20 20 19 19 18 18 17 17 17 16 16 16 15 15 15 15 14 14 14 14 13 13 13 13 13 13 13 12 12 11 11 11 11 11 11 10 10
22 21 21 21 20 20 20 19 19 18 18 17 17 17 16 16 16 15 15 15 15 14 14 14 13 13 13 13 13 13 12 12 12 12 11 11 11 11 10 10 10 10 10
21 21 20 20 20 19 19 19 18 18 17 17 16 16 16 15 15 15 15 14 14 14 14 13 13 13 13 13 12 12 12 11 11 11 11 10 10 10 10 9 9 9 9
20 20 20 19 19 18 18 18 17 17 17 16 16 15 15 15 15 14 14 14 14 14 13 13 13 13 13 12 12 12 11 11 11 10 10 10 10 9 9 9 8 8 8
19 19 19 18 18 18 17 17 17 16 16 16 16 15 15 14 14 14 14 13 13 13 13 13 12 12 12 12 11 11 11 10 10 10 10 10 9 9 9 8 8 8 8
Wind_Speed
7 9 11 12 12 11 11 11 11 9 7 4 4 3 3 3 3 4 7 9 9 9 7 4 3 4 4 4 3 2 2 1 1 1 2 3 2 2 3 4 4 6 10
8 10 10 11 12 11 10 10 11 10 8 6 5 4 3 3 3 3 5 8 9 8 7 5 4 4 4 4 4 3 2 1 2 3 1 2 4 2 2 2 4 5 6
14 12 12 11 11 11 12 11 10 9 8 7 4 3 2 1 2 2 3 5 8 8 7 6 5 4 5 5 4 4 4 3 2 3 4 3 3 2 2 1 2 2 3
12 11 11 11 11 11 10 10 10 9 8 8 7 7 5 4 4 4 4 4 6 7 8 7 6 5 4 5 4 4 4 4 3 2 3 3 4 3 1 2 1 1 2
12 12 12 11 11 10 10 9 9 8 8 8 8 7 5 4 3 3 4 4 3 5 7 7 6 5 4 5 5 4 4 4 4 4 3 2 2 2 3 2 1 1 1
11 9 8 8 7 8 9 8 9 8 8 8 7 7 7 5 4 4 4 4 3 3 4 5 5 4 4 5 5 5 5 4 4 4 3 3 3 3 3 3 3 2 1
11 11 10 10 10 10 10 9 10 8 8 8 7 7 7 7 7 6 5 4 3 3 5 4 4 4 4 4 4 4 4 4 4 4 4 4 4 3 4 4 3 2 1
10 11 12 12 11 11 11 10 10 8 8 8 7 6 6 5 4 5 5 5 4 4 4 3 3 3 3 3 3 3 3 3 3 4 4 3 3 3 4 4 4 2 1
12 12 11 11 10 10 10 11 10 8 8 8 7 6 6 5 5 4 4 3 3 3 3 2 2 3 3 3 3 2 3 3 3 3 3 2 2 3 3 4 5 5 3
11 11 10 10 9 9 9 9 10 9 8 8 7 6 5 5 5 4 4 4 3 3 2 3 3 2 2 2 3 2 2 2 2 2 2 2 2 2 3 3 4 4 4
12 12 11 10 9 9 9 9 9 8 7 7 6 5 5 5 4 4 4 4 3 3 3 3 3 2 2 2 3 2 2 2 2 2 2 2 2 2 2 3 3 3 4
11 11 11 10 10 10 9 9 8 8 7 7 6 6 5 5 5 4 3 3 3 2 2 2 2 2 1 2 2 2 1 1 1 1 1 2 1 2 1 2 3 3 4
10 9 10 11 11 10 9 9 8 8 7 7 7 6 5 5 5 4 4 4 3 2 2 2 2 1 1 2 2 2 2 2 1 1 2 2 2 1 1 2 2 3 3
11 10 10 10 10 10 10 9 8 8 8 8 7 6 5 5 5 4 4 4 4 3 3 2 2 2 2 2 1 2 2 2 1 0 1 1 2 2 2 2 3 4 4
12 12 11 10 10 10 9 9 9 8 8 8 7 6 5 5 5 5 4 4 4 4 3 4 3 3 2 2 2 2 3 3 2 2 2 2 2 3 2 3 3 5 5
13 12 12 11 12 12 11 10 9 9 8 8 7 6 6 6 5 5 5 5 5 4 5 4 4 4 2 3 4 4 3 3 3 3 3 3 4 5 6 5 5 6 6
15 14 13 13 12 12 11 11 10 9 9 8 7 7 6 6 5 5 5 5 4 5 5 4 4 4 3 4 5 6 5 5 4 3 3 4 5 6 6 8 8 6 5
14 14 13 12 10 9 9 10 9 9 9 8 7 7 6 6 5 6 6 5 4 4 4 4 4 4 3 5 6 7 6 6 5 4 4 4 4 4 6 7 7 6 5
12 11 11 11 11 11 11 11 10 8 8 8 7 7 7 7 6 6 5 5 5 4 3 3 4 4 3 5 6 7 5 5 5 4 4 4 4 5 7 8 7 6 5
9 10 11 11 11 11 12 12 10 9 8 8 7 7 7 7 7 6 5 4 5 4 4 4 3 3 3 3 5 6 5 5 4 4 4 5 5 6 7 6 7 6 4
9 11 12 11 10 11 12 11 9 8 8 7 7 7 7 7 7 6 4 5 5 5 4 4 3 3 3 3 4 5 4 5 4 3 3 2 5 6 6 6 5 6 5
9 10 10 9 8 10 11 10 8 7 7 8 7 7 7 7 6 7 5 5 6 6 4 4 3 2 2 3 4 5 5 5 5 4 2 2 5 7 6 5 6 8 7
8 8 10 9 8 8 9 10 7 8 8 8 8 7 7 6 6 6 6 5 5 4 4 4 3 2 2 3 6 6 7 7 5 4 5 6 7 6 5 5 6 5 4
8 8 9 9 8 7 7 7 7 8 9 9 8 7 7 6 5 4 4 5 4 4 4 4 4 3 2 2 2 3 4 6 5 4 5 6 6 5 4 3 3 2 3
5 7 9 9 8 8 7 7 7 8 8 8 7 7 6 7 6 4 3 3 2 3 5 5 5 5 4 5 6 5 4 4 4 5 3 2 2 2 2 2 2 2 2
5 7 7 8 7 7 7 5 6 8 9 7 7 6 6 6 6 6 4 6 4 3 2 4 5 4 5 9 9 7 7 8 8 5 3 2 2 2 2 2 1 1 1
Wind_Direction
179 162 160 158 157 160 161 163 163 169 158 152 148 145 170 179 179 183 186 179 176 181 180 180 175 170 167 181 178 166 174 206 165 93 348 330 316 222 208 201 193 201 204
169 166 161 163 165 167 168 164 168 171 170 170 163 164 170 181 182 180 190 190 183 186 185 175 181 179 175 184 185 171 165 214 168 145 123 337 336 329 245 201 197 207 203
177 173 169 170 167 171 174 173 171 172 175 169 151 144 118 105 147 184 198 205 198 196 196 187 180 184 183 192 198 182 174 198 219 175 157 166 224 283 317 267 215 187 187
175 173 173 172 174 178 173 168 167 170 172 168 165 171 178 187 195 187 196 210 206 200 201 195 187 185 187 194 203 191 183 177 207 220 201 186 168 171 269 336 343 200 185
175 177 179 176 174 173 170 169 163 168 171 172 173 178 185 186 177 171 190 209 217 205 202 196 192 193 198 203 205 195 193 190 194 200 202 199 187 172 170 230 308 351 322
173 172 171 159 164 165 165 166 166 172 174 173 175 181 183 181 177 184 194 206 212 213 207 201 193 192 200 208 206 203 199 202 198 197 190 181 180 191 182 200 214 226 291
163 164 166 167 174 170 169 170 171 174 175 174 181 183 183 183 190 192 194 194 200 211 219 212 194 196 207 206 196 197 202 202 202 203 204 201 201 185 176 176 191 205 230
168 172 175 174 177 175 172 171 174 176 175 177 182 182 182 186 195 196 193 193 200 210 210 196 189 193 195 199 189 195 201 201 212 217 210 210 211 190 181 176 165 174 240
173 174 174 172 174 174 174 172 173 174 176 178 179 183 184 186 192 194 190 188 193 200 198 189 200 202 192 192 187 197 211 194 208 214 210 216 223 197 191 182 171 170 197
168 167 169 173 173 172 170 168 171 175 177 180 184 186 184 183 177 170 174 181 190 194 184 189 195 198 196 188 188 206 208 186 215 218 203 210 223 206 186 186 187 179 182
170 167 170 172 166 160 161 164 167 168 172 176 173 168 169 168 163 169 179 179 180 174 177 186 186 187 201 198 189 204 196 193 221 242 207 221 204 204 205 190 189 182 167
170 169 167 161 160 162 162 164 165 166 168 164 157 161 159 155 159 167 171 165 160 161 169 167 161 173 186 182 177 187 186 174 211 236 210 231 198 189 201 183 183 182 169
165 163 161 162 164 163 161 162 162 160 155 150 149 150 153 154 161 165 156 150 144 137 128 130 136 122 107 121 135 145 147 149 185 197 192 207 169 187 194 175 166 163 150
165 165 166 165 163 160 160 159 158 155 150 147 148 153 162 161 159 155 148 145 139 134 122 107 106 100 96 105 120 130 133 122 117 119 154 165 166 187 175 158 152 143 137
169 170 171 168 161 159 159 158 155 153 150 148 152 159 154 145 145 143 138 128 121 120 111 101 89 78 78 83 108 119 123 115 94 68 63 76 108 134 151 155 154 146 142
175 175 170 166 164 164 163 158 155 156 151 152 155 150 138 135 135 134 128 119 113 104 97 96 95 82 69 73 104 109 105 101 97 84 66 64 67 80 87 103 122 137 146
175 175 174 171 169 166 160 156 156 150 148 149 147 144 139 138 142 138 123 121 120 113 105 100 100 96 73 82 90 95 100 90 82 77 72 73 68 74 83 79 79 87 118
174 173 171 165 159 153 147 145 143 144 145 144 145 144 140 139 134 129 128 123 118 117 115 111 107 98 77 78 85 90 86 81 72 69 77 89 75 78 95 92 78 65 59
172 166 162 155 150 150 147 139 140 143 145 151 153 152 146 144 140 138 140 133 124 116 112 110 107 102 81 79 95 101 96 88 73 65 66 84 87 91 101 101 95 80 62
152 147 143 137 144 148 142 139 145 148 155 159 156 152 149 148 149 147 141 135 129 129 126 114 112 114 106 99 111 111 112 105 89 67 57 67 91 101 105 112 115 109 98
137 140 140 143 148 145 140 142 147 156 155 146 142 144 145 144 144 141 138 138 136 129 124 118 106 98 98 110 116 124 124 131 120 102 75 62 94 103 103 106 115 126 120
120 128 132 134 136 140 140 142 150 149 141 139 137 138 141 145 145 142 142 140 140 136 133 126 106 78 71 87 106 117 121 128 127 127 116 100 105 105 103 100 111 111 103
115 119 124 124 125 134 140 143 147 141 137 136 137 137 135 132 141 146 147 141 140 144 146 145 146 131 91 84 100 112 121 123 119 126 125 112 102 96 94 100 106 101 100
114 121 124 126 129 129 130 137 142 141 137 139 141 141 136 131 126 129 139 147 155 160 161 161 161 154 140 135 122 115 117 114 109 112 111 100 90 81 80 84 81 94 129
111 124 129 133 133 130 127 129 135 137 138 142 143 141 137 135 123 109 97 133 148 180 179 181 175 172 182 194 172 156 150 149 142 122 98 89 91 84 72 66 67 84 110
116 118 118 123 125 123 119 128 141 142 142 145 148 148 144 140 138 133 101 56 71 79 126 165 162 171 167 159 160 158 150 143 139 123 132 148 153 158 154 138 117 104 139
Height
1529 1531 1533 1535 1537 1539 1540 1542 1544 1546 1548 1550 1552 1553 1555 1557 1558 1559 1561 1562 1563 1564 1565 1566 1567 1569 1570 1571 1572 1573 1573 1574 1575 1575 1575 1576 1576 1576 1576 1576 1576 1577 1577
1528 1529 1531 1533 1535 1537 1539 1540 1542 1544 1546 1548 1550 1552 1554 1556 1557 1558 1559 1561 1562 1563 1564 1565 1566 1567 1568 1569 1570 1571 1571 1572 1573 1573 1574 1574 1575 1574 1574 1574 1574 1574 1575
1524 1527 1528 1530 1533 1535 1537 1538 1540 1542 1545 1547 1549 1551 1553 1554 1556 1556 1558 1559 1560 1561 1562 1563 1564 1565 1566 1567 1567 1568 1569 1570 1571 1571 1572 1572 1571 1572 1572 1572 1572 1572 1572
1521 1524 1527 1529 1531 1533 1536 1538 1539 1541 1543 1545 1547 1549 1550 1551 1553 1554 1555 1557 1558 1559 1560 1561 1562 1563 1564 1564 1565 1566 1566 1567 1568 1569 1569 1570 1569 1570 1569 1570 1569 1569 1570
1520 1523 1525 1528 1530 1532 1534 1536 1538 1539 1541 1543 1545 1546 1548 1550 1551 1552 1553 1554 1556 1557 1558 1559 1559 1560 1561 1561 1562 1563 1563 1564 1564 1565 1566 1566 1567 1567 1567 1567 1567 1567 1567
1519 1522 1524 1528 1530 1531 1533 1535 1536 1537 1539 1541 1543 1545 1546 1548 1549 1550 1551 1552 1553 1554 1555 1556 1557 1557 1558 1559 1559 1560 1560 1560 1561 1562 1562 1563 1563 1564 1564 1564 1564 1565 1565
1517 1520 1523 1525 1527 1529 1531 1533 1534 1536 1537 1539 1541 1543 1544 1546 1547 1548 1549 1550 1550 1551 1552 1553 1553 1554 1555 1555 1556 1556 1556 1557 1558 1558 1559 1559 1560 1561 1561 1561 1561 1562 1562
1516 1519 1521 1523 1526 1528 1530 1531 1533 1534 1536 1537 1539 1541 1542 1544 1545 1546 1546 1547 1548 1548 1549 1550 1550 1551 1552 1552 1552 1553 1553 1553 1554 1554 1555 1555 1556 1557 1557 1558 1558 1559 1559
1514 1517 1520 1523 1525 1527 1528 1530 1531 1533 1535 1536 1538 1539 1540 1541 1542 1543 1544 1545 1545 1546 1546 1547 1547 1548 1549 1549 1549 1549 1549 1550 1550 1551 1551 1551 1552 1553 1553 1554 1555 1556 1555
1513 1516 1519 1521 1524 1526 1527 1529 1531 1532 1533 1535 1536 1537 1538 1539 1540 1541 1542 1542 1543 1543 1543 1544 1545 1545 1545 1546 1546 1545 1546 1547 1547 1547 1548 1548 1548 1549 1549 1550 1550 1551 1552
1512 1514 1517 1520 1523 1525 1526 1528 1529 1531 1532 1533 1535 1536 1537 1538 1538 1539 1539 1540 1540 1541 1541 1542 1542 1543 1543 1543 1543 1543 1543 1543 1543 1544 1544 1544 1545 1545 1545 1546 1546 1547 1548
1510 1513 1515 1518 1521 1523 1525 1527 1528 1530 1531 1532 1534 1535 1535 1536 1536 1537 1537 1538 1538 1539 1539 1540 1540 1540 1540 1540 1540 1540 1540 1540 1541 1541 1541 1541 1541 1541 1541 1542 1542 1543 1543
1510 1512 1515 1517 1519 1522 1524 1526 1528 1529 1530 1532 1533 1533 1534 1534 1535 1535 1536 1536 1537 1537 1538 1538 1538 1538 1538 1538 1538 1538 1538 1538 1538 1538 1538 1538 1538 1538 1538 1538 1538 1539 1540
1508 1511 1513 1515 1518 1520 1523 1525 1526 1528 1529 1530 1531 1532 1532 1533 1533 1533 1534 1535 1535 1536 1536 1537 1537 1536 1536 1536 1536 1536 1536 1536 1536 1536 1536 1536 1536 1535 1535 1536 1536 1536 1536
1505 1508 1511 1513 1516 1519 1521 1523 1525 1527 1528 1529 1530 1531 1531 1532 1532 1532 1533 1534 1534 1535 1535 1535 1535 1535 1535 1535 1535 1535 1534 1534 1534 1534 1534 1534 1533 1533 1533 1533 1533 1533 1533
1502 1505 1508 1511 1514 1516 1519 1521 1524 1526 1527 1528 1529 1530 1530 1531 1531 1532 1532 1533 1533 1534 1534 1534 1534 1534 1534 1534 1534 1533 1533 1533 1533 1532 1532 1532 1531 1531 1531 1531 1531 1532 1532
1498 1502 1506 1509 1512 1515 1517 1520 1522 1524 1526 1527 1528 1529 1529 1530 1531 1532 1532 1533 1533 1533 1533 1533 1533 1533 1533 1533 1533 1532 1532 1531 1531 1531 1531 1530 1530 1530 1530 1530 1530 1530 1531
1495 1498 1502 1506 1510 1513 1516 1519 1521 1523 1524 1525 1527 1528 1529 1529 1530 1531 1531 1532 1532 1532 1532 1532 1532 1532 1532 1532 1532 1532 1531 1531 1531 1531 1531 1530 1530 1529 1529 1529 1529 1529 1530
1492 1496 1500 1503 1507 1510 1513 1516 1519 1521 1523 1524 1525 1526 1527 1528 1529 1529 1530 1531 1531 1531 1531 1531 1531 1531 1531 1531 1531 1531 1530 1530 1530 1530 1530 1530 1529 1529 1529 1529 1528 1529 1529
1491 1494 1498 1502 1505 1508 1511 1514 1516 1518 1520 1521 1523 1524 1525 1527 1527 1528 1529 1529 1530 1530 1530 1530 1531 1530 1530 1530 1530 1530 1530 1529 1529 1529 1529 1529 1529 1529 1529 1529 1528 1528 1529
1490 1493 1496 1499 1502 1505 1508 1511 1513 1515 1518 1520 1521 1522 1524 1525 1526 1527 1527 1528 1529 1529 1529 1530 1530 1530 1530 1530 1530 1530 1529 1529 1529 1528 1528 1529 1529 1529 1529 1529 1529 1529 1529
1490 1492 1495 1498 1501 1504 1507 1509 1511 1514 1516 1518 1519 1520 1522 1523 1524 1525 1526 1526 1527 1528 1528 1528 1528 1529 1529 1529 1529 1529 1529 1528 1528 1528 1528 1528 1529 1529 1529 1529 1529 1529 1530
1490 1493 1496 1498 1501 1504 1506 1508 1510 1512 1514 1516 1517 1518 1520 1521 1522 1523 1524 1524 1525 1526 1526 1527 1527 1527 1528 1528 1528 1528 1528 1527 1528 1528 1528 1528 1529 1529 1529 1529 1530 1530 1530
1491 1493 1496 1498 1500 1502 1505 1506 1508 1510 1512 1513 1515 1516 1517 1519 1520 1521 1522 1522 1523 1524 1524 1525 1525 1525 1526 1526 1526 1526 1526 1527 1527 1527 1527 1528 1528 1529 1529 1529 1530 1530 1531
1491 1493 1495 1497 1499 1501 1503 1505 1507 1509 1510 1512 1513 1514 1515 1516 1518 1519 1520 1520 1521 1522 1522 1523 1523 1523 1524 1524 1525 1525 1525 1526 1526 1526 1527 1527 1527 1528 1528 1529 1530 1530 1531
1492 1494 1495 1497 1498 1499 1501 1503 1505 1506 1508 1509 1511 1512 1513 1514 1516 1516 1517 1518 1519 1519 1520 1520 1521 1521 1522 1523 1523 1524 1524 1525 1525 1525 1525 1525 1526 1527 1527 1528 1529 1530 1531